N13SY KFLL-KORL

Flight info

Callsign N13SY
Flight time 0h 42m
Altitude 28000
Route FRSBE2 WAPOM MUNGI1
Aircraft C750/M-SBDE3FGHRWXY/S

Departure

Time 2026-05-05 00:01
Airport Fort Lauderdale Hollywood International Airport (KFLL)

Arrival

Time 2026-05-05 00:44
Airport Orlando Executive Airport (KORL)
Time Latitude Longitude Altitude Speed Heading
2026-05-04 23:44 26.06918 -80.15529 12 ft 0 kts 37°
2026-05-04 23:54 26.06927 -80.15512 12 ft 8 kts 78°
2026-05-04 23:54 26.06914 -80.15417 12 ft 17 kts 91°
2026-05-04 23:54 26.06946 -80.15304 12 ft 14 kts 13°
2026-05-04 23:54 26.07059 -80.15308 12 ft 19 kts 338°
2026-05-04 23:55 26.07164 -80.15416 12 ft 24 kts 314°
2026-05-04 23:55 26.07293 -80.15557 12 ft 26 kts 315°
2026-05-04 23:55 26.07493 -80.15823 12 ft 20 kts 270°
2026-05-04 23:56 26.07495 -80.15984 12 ft 22 kts 270°
2026-05-04 23:56 26.07495 -80.16143 13 ft 19 kts 270°
2026-05-04 23:56 26.07496 -80.16285 12 ft 17 kts 270°
2026-05-04 23:56 26.07497 -80.16411 12 ft 17 kts 270°
2026-05-04 23:57 26.07497 -80.16551 12 ft 17 kts 270°
2026-05-04 23:57 26.07522 -80.16640 12 ft 9 kts 334°
2026-05-04 23:57 26.07575 -80.16643 13 ft 6 kts
2026-05-04 23:57 26.07594 -80.16643 13 ft 0 kts
2026-05-05 00:00 26.07680 -80.16631 14 ft 14 kts 36°
2026-05-05 00:00 26.07694 -80.16420 17 ft 69 kts 90°
2026-05-05 00:01 26.07686 -80.15544 183 ft 134 kts 90°
2026-05-05 00:01 26.07685 -80.14442 606 ft 158 kts 89°
2026-05-05 00:01 26.07740 -80.13247 1034 ft 144 kts 85°
2026-05-05 00:01 26.07764 -80.12128 1759 ft 147 kts 86°
2026-05-05 00:02 26.07777 -80.10920 2095 ft 166 kts 88°
2026-05-05 00:02 26.08033 -80.09519 2115 ft 204 kts 69°
2026-05-05 00:02 26.08640 -80.08020 2606 ft 225 kts 61°
2026-05-05 00:02 26.09900 -80.06803 2892 ft 259 kts 28°
2026-05-05 00:03 26.11580 -80.06131 4078 ft 256 kts 21°
2026-05-05 00:03 26.13270 -80.05450 5088 ft 263 kts 21°
2026-05-05 00:03 26.15055 -80.04832 5826 ft 275 kts
2026-05-05 00:03 26.16944 -80.05140 6670 ft 277 kts 340°
2026-05-05 00:04 26.18738 -80.05857 7784 ft 272 kts 337°
2026-05-05 00:04 26.20557 -80.06588 8644 ft 283 kts 336°
2026-05-05 00:04 26.22178 -80.07789 9615 ft 280 kts 310°
2026-05-05 00:04 26.23233 -80.09602 10393 ft 285 kts 292°
2026-05-05 00:05 26.24004 -80.11742 10680 ft 310 kts 288°
2026-05-05 00:05 26.24794 -80.14074 10858 ft 336 kts 289°
2026-05-05 00:05 26.25764 -80.16491 11396 ft 345 kts 297°
2026-05-05 00:05 26.27062 -80.18736 12282 ft 345 kts 301°
2026-05-05 00:06 26.28380 -80.20986 13039 ft 348 kts 300°
2026-05-05 00:06 26.29671 -80.23282 13793 ft 351 kts 299°
2026-05-05 00:06 26.30968 -80.25602 14474 ft 354 kts 300°
2026-05-05 00:06 26.32290 -80.27922 15168 ft 355 kts 300°
2026-05-05 00:07 26.33592 -80.30196 16346 ft 335 kts 300°
2026-05-05 00:07 26.34787 -80.32297 17825 ft 307 kts 299°
2026-05-05 00:07 26.35872 -80.34214 18700 ft 287 kts 298°
2026-05-05 00:07 26.36956 -80.36150 19010 ft 303 kts 298°
2026-05-05 00:08 26.38082 -80.38142 19006 ft 303 kts 298°
2026-05-05 00:08 26.39216 -80.40132 19003 ft 304 kts 298°
2026-05-05 00:08 26.40309 -80.42063 19004 ft 303 kts 298°
2026-05-05 00:08 26.41441 -80.44067 19003 ft 303 kts 298°
2026-05-05 00:09 26.42584 -80.46092 18997 ft 305 kts 298°
2026-05-05 00:09 26.43690 -80.48041 19007 ft 293 kts 298°
2026-05-05 00:09 26.44789 -80.49992 19007 ft 300 kts 298°
2026-05-05 00:09 26.45901 -80.51966 19010 ft 302 kts 298°
2026-05-05 00:10 26.47028 -80.53951 19015 ft 303 kts 299°
2026-05-05 00:10 26.48441 -80.55705 18998 ft 308 kts 315°
2026-05-05 00:10 26.50291 -80.56981 19003 ft 319 kts 329°
2026-05-05 00:10 26.52429 -80.57742 19020 ft 325 kts 337°
2026-05-05 00:11 26.54611 -80.58418 19025 ft 325 kts 337°
2026-05-05 00:11 26.56785 -80.59106 19030 ft 325 kts 338°
2026-05-05 00:11 26.58961 -80.59803 19025 ft 325 kts 337°
2026-05-05 00:11 26.61166 -80.60508 19030 ft 341 kts 338°
2026-05-05 00:12 26.63524 -80.61266 19024 ft 359 kts 338°
2026-05-05 00:12 26.65935 -80.62021 19025 ft 362 kts 338°
2026-05-05 00:12 26.68363 -80.62785 19028 ft 363 kts 338°
2026-05-05 00:12 26.70794 -80.63562 19028 ft 363 kts 338°
2026-05-05 00:13 26.73227 -80.64340 19025 ft 364 kts 338°
2026-05-05 00:13 26.75659 -80.65113 19025 ft 364 kts 338°
2026-05-05 00:13 26.78100 -80.65889 19024 ft 364 kts 338°
2026-05-05 00:13 26.80531 -80.66665 19026 ft 364 kts 338°
2026-05-05 00:14 26.82972 -80.67444 19027 ft 364 kts 338°
2026-05-05 00:14 26.85412 -80.68222 19026 ft 365 kts 338°
2026-05-05 00:14 26.87851 -80.69000 19026 ft 366 kts 338°
2026-05-05 00:14 26.90299 -80.69782 19026 ft 365 kts 338°
2026-05-05 00:15 26.92711 -80.70639 19024 ft 364 kts 335°
2026-05-05 00:15 26.95106 -80.71557 19024 ft 363 kts 335°
2026-05-05 00:15 26.97506 -80.72460 19025 ft 364 kts 336°
2026-05-05 00:15 26.99095 -80.73055 19026 ft 364 kts 336°
2026-05-05 00:16 27.01526 -80.73972 19027 ft 363 kts 335°
2026-05-05 00:16 27.03917 -80.74879 19028 ft 363 kts 335°
2026-05-05 00:16 27.06316 -80.75788 19030 ft 364 kts 335°
2026-05-05 00:16 27.08713 -80.76695 19029 ft 364 kts 335°
2026-05-05 00:17 27.11110 -80.77602 19029 ft 363 kts 335°
2026-05-05 00:17 27.13508 -80.78511 19030 ft 364 kts 335°
2026-05-05 00:17 27.15904 -80.79419 19030 ft 364 kts 335°
2026-05-05 00:17 27.18302 -80.80330 19034 ft 365 kts 336°
2026-05-05 00:18 27.20703 -80.81240 19031 ft 364 kts 336°
2026-05-05 00:18 27.23108 -80.82153 19031 ft 364 kts 336°
2026-05-05 00:18 27.25509 -80.83066 19032 ft 364 kts 336°
2026-05-05 00:18 27.27909 -80.83977 19032 ft 365 kts 336°
2026-05-05 00:19 27.30312 -80.84891 19032 ft 364 kts 336°
2026-05-05 00:19 27.32726 -80.85774 19025 ft 366 kts 339°
2026-05-05 00:19 27.35195 -80.86501 19025 ft 367 kts 340°
2026-05-05 00:19 27.37671 -80.87223 19026 ft 367 kts 340°
2026-05-05 00:20 27.40131 -80.87957 19027 ft 367 kts 339°
2026-05-05 00:20 27.42601 -80.88698 19035 ft 367 kts 339°
2026-05-05 00:20 27.45066 -80.89431 19035 ft 367 kts 340°
2026-05-05 00:20 27.47564 -80.90171 19035 ft 367 kts 340°
2026-05-05 00:21 27.49956 -80.90883 19035 ft 367 kts 340°
2026-05-05 00:21 27.52451 -80.91627 19030 ft 366 kts 340°
2026-05-05 00:21 27.54912 -80.92361 19038 ft 366 kts 340°
2026-05-05 00:21 27.57374 -80.93094 19038 ft 366 kts 340°
2026-05-05 00:22 27.59835 -80.93829 19035 ft 366 kts 340°
2026-05-05 00:22 27.62298 -80.94563 19036 ft 366 kts 340°
2026-05-05 00:22 27.64761 -80.95299 19036 ft 366 kts 340°
2026-05-05 00:22 27.67221 -80.96033 19036 ft 366 kts 340°
2026-05-05 00:23 27.69683 -80.96769 19037 ft 366 kts 340°
2026-05-05 00:23 27.72143 -80.97504 19042 ft 366 kts 340°
2026-05-05 00:23 27.74604 -80.98240 19049 ft 366 kts 340°
2026-05-05 00:23 27.77073 -80.98980 18900 ft 370 kts 340°
2026-05-05 00:24 27.79563 -80.99726 18376 ft 369 kts 340°
2026-05-05 00:24 27.82030 -81.00462 17780 ft 365 kts 341°
2026-05-05 00:24 27.84470 -81.01192 17186 ft 361 kts 341°
2026-05-05 00:24 27.86883 -81.01917 16610 ft 357 kts 341°
2026-05-05 00:25 27.89279 -81.02636 16052 ft 354 kts 342°
2026-05-05 00:25 27.91651 -81.03348 15518 ft 352 kts 342°
2026-05-05 00:25 27.93849 -81.04048 15006 ft 348 kts 339°
2026-05-05 00:25 27.96107 -81.05018 14484 ft 347 kts 337°
2026-05-05 00:26 27.98364 -81.05977 13991 ft 346 kts 338°
2026-05-05 00:26 28.00616 -81.06913 13454 ft 344 kts 338°
2026-05-05 00:26 28.02849 -81.07854 12911 ft 342 kts 338°
2026-05-05 00:26 28.05064 -81.08810 12368 ft 337 kts 335°
2026-05-05 00:27 28.06890 -81.10357 11924 ft 322 kts 307°
2026-05-05 00:27 28.07782 -81.12533 11414 ft 303 kts 279°
2026-05-05 00:27 28.07815 -81.14821 11105 ft 282 kts 266°
2026-05-05 00:27 28.07642 -81.17025 10455 ft 280 kts 263°
2026-05-05 00:28 28.07440 -81.19206 9805 ft 278 kts 263°
2026-05-05 00:28 28.07239 -81.21370 9126 ft 275 kts 263°
2026-05-05 00:28 28.07037 -81.23517 8435 ft 273 kts 263°
2026-05-05 00:28 28.06836 -81.25651 7794 ft 272 kts 263°
2026-05-05 00:29 28.06636 -81.27757 7227 ft 266 kts 263°
2026-05-05 00:29 28.06438 -81.29839 6567 ft 266 kts 263°
2026-05-05 00:29 28.06248 -81.31910 5935 ft 264 kts 263°
2026-05-05 00:29 28.06069 -81.33973 5317 ft 267 kts 263°
2026-05-05 00:30 28.05887 -81.36100 4994 ft 268 kts 262°
2026-05-05 00:30 28.05716 -81.38170 4997 ft 265 kts 263°
2026-05-05 00:30 28.05534 -81.40261 5001 ft 268 kts 263°
2026-05-05 00:30 28.05349 -81.42366 5005 ft 269 kts 262°
2026-05-05 00:31 28.05174 -81.44479 5006 ft 269 kts 263°
2026-05-05 00:31 28.04999 -81.46588 5000 ft 268 kts 263°
2026-05-05 00:31 28.04829 -81.48697 5000 ft 270 kts 263°
2026-05-05 00:31 28.04655 -81.50806 4991 ft 271 kts 263°
2026-05-05 00:32 28.04525 -81.52925 4957 ft 271 kts 271°
2026-05-05 00:32 28.05184 -81.54905 4910 ft 274 kts 307°
2026-05-05 00:32 28.06753 -81.56113 4915 ft 277 kts 342°
2026-05-05 00:32 28.08662 -81.56169 4988 ft 276 kts
2026-05-05 00:33 28.10547 -81.55727 5022 ft 276 kts 13°
2026-05-05 00:33 28.12420 -81.55223 5009 ft 276 kts 13°
2026-05-05 00:33 28.14275 -81.54702 5018 ft 274 kts 13°
2026-05-05 00:33 28.16118 -81.54182 4944 ft 268 kts 13°
2026-05-05 00:34 28.17928 -81.53675 4248 ft 269 kts 14°
2026-05-05 00:34 28.19773 -81.53510 3595 ft 270 kts 353°
2026-05-05 00:34 28.21572 -81.54305 3012 ft 280 kts 335°
2026-05-05 00:34 28.23194 -81.55327 3022 ft 253 kts 333°
2026-05-05 00:35 28.24662 -81.56279 2992 ft 234 kts 333°
2026-05-05 00:35 28.26040 -81.57178 2977 ft 229 kts 333°
2026-05-05 00:35 28.27459 -81.58050 2963 ft 232 kts 339°
2026-05-05 00:35 28.29016 -81.58128 2933 ft 224 kts 20°
2026-05-05 00:36 28.30382 -81.57352 3003 ft 212 kts 34°
2026-05-05 00:36 28.31591 -81.56572 3014 ft 189 kts 33°
2026-05-05 00:36 28.32699 -81.55867 3004 ft 179 kts 32°
2026-05-05 00:36 28.33790 -81.55161 3008 ft 189 kts 34°
2026-05-05 00:37 28.34990 -81.54383 3018 ft 202 kts 33°
2026-05-05 00:37 28.36208 -81.53593 3020 ft 203 kts 33°
2026-05-05 00:37 28.37439 -81.52796 3018 ft 202 kts 33°
2026-05-05 00:37 28.38675 -81.52001 3012 ft 204 kts 33°
2026-05-05 00:38 28.39906 -81.51204 3016 ft 203 kts 33°
2026-05-05 00:38 28.41138 -81.50403 3018 ft 204 kts 33°
2026-05-05 00:38 28.42328 -81.49642 3002 ft 187 kts 33°
2026-05-05 00:38 28.43434 -81.48945 2998 ft 180 kts 33°
2026-05-05 00:39 28.44524 -81.48268 2946 ft 176 kts 33°
2026-05-05 00:39 28.45604 -81.47597 2515 ft 179 kts 33°
2026-05-05 00:39 28.46719 -81.46903 2081 ft 189 kts 33°
2026-05-05 00:39 28.47826 -81.46211 1982 ft 168 kts 34°
2026-05-05 00:40 28.48838 -81.45614 1997 ft 169 kts 33°
2026-05-05 00:40 28.49834 -81.44916 1964 ft 168 kts 49°
2026-05-05 00:40 28.50467 -81.43848 1961 ft 152 kts 65°
2026-05-05 00:40 28.50885 -81.42839 1775 ft 127 kts 68°
2026-05-05 00:41 28.51230 -81.41967 1615 ft 123 kts 70°
2026-05-05 00:41 28.51577 -81.41052 1444 ft 125 kts 70°
2026-05-05 00:41 28.51913 -81.40167 1283 ft 117 kts 70°
2026-05-05 00:41 28.52234 -81.39320 1132 ft 117 kts 68°
2026-05-05 00:42 28.52546 -81.38463 997 ft 119 kts 68°
2026-05-05 00:42 28.52889 -81.37604 818 ft 122 kts 69°
2026-05-05 00:42 28.53232 -81.36722 673 ft 121 kts 70°
2026-05-05 00:42 28.53551 -81.35839 506 ft 120 kts 70°
2026-05-05 00:43 28.53888 -81.34977 334 ft 120 kts 69°
2026-05-05 00:43 28.54216 -81.34103 167 ft 120 kts 69°
2026-05-05 00:43 28.54523 -81.33291 118 ft 98 kts 66°
2026-05-05 00:43 28.54729 -81.32757 115 ft 58 kts 67°
2026-05-05 00:44 28.54867 -81.32392 121 ft 39 kts 67°
2026-05-05 00:44 28.54962 -81.32313 120 ft 15 kts 335°
2026-05-05 00:44 28.55026 -81.32367 118 ft 9 kts 266°
2026-05-05 00:44 28.54998 -81.32444 115 ft 13 kts 246°
2026-05-05 00:45 28.54954 -81.32559 114 ft 20 kts 247°
2026-05-05 00:45 28.54886 -81.32740 115 ft 27 kts 246°
2026-05-05 00:45 28.54814 -81.32928 116 ft 26 kts 246°
2026-05-05 00:45 28.54741 -81.33119 116 ft 26 kts 246°
2026-05-05 00:46 28.54712 -81.33306 115 ft 24 kts 264°
2026-05-05 00:46 28.54694 -81.33503 114 ft 25 kts 264°
2026-05-05 00:46 28.54709 -81.33637 115 ft 14 kts 312°
2026-05-05 00:46 28.54762 -81.33689 116 ft 7 kts
2026-05-05 00:47 28.54784 -81.33675 116 ft 3 kts 25°
2026-05-05 00:47 28.54801 -81.33680 116 ft 2 kts 315°
2026-05-05 00:47 28.54809 -81.33689 116 ft 1 kts 314°
2026-05-05 00:47 28.54821 -81.33704 116 ft 0 kts 313°
2026-05-05 00:48 28.54822 -81.33705 116 ft 0 kts 313°